Skip Page Navigation
NASA JPL Caltech
NASA Logo - Jet Propulsion Laboratory + View the NASA Portal
+ Near-Earth Object (NEO) Program
Search JPL
JPL Home Earth Solar System Stars & Galaxies Technology
JPL Solar System Dynamics
BODIES ORBITS EPHEMERIDES TOOLS PHYSICAL DATA DISCOVERY FAQ SITE MAP
JPL Small-Body Database Browser
Search: [ help ]  
(2001 FA58)
Classification: Apollo [NEO, PHA]          SPK-ID: 3071766
Ephemeris | Orbit Diagram | Orbital Elements | Physical Parameters | Close-Approach Data ]

[ hide orbit diagram ]
Orbit Diagram
Note: Make sure you have Java enabled on your browser to see the applet. This applet is provided as a 3D orbit visualization tool. The applet was implemented using 2-body methods, and hence should not be used for determining accurate long-term trajectories (over several years or decades) or planetary encounter circumstances. For accurate long-term ephemerides, please instead use our Horizons system.
Orbit Viewer

Additional Notes: the orbits shown in the applet are color coded. The planets are white lines, and the asteroid/comet is a blue line. The bright white line indicates the portion of the orbit that is above the ecliptic plane, and the darker portion is below the ecliptic plane. Likewise for the asteroid/comet orbit, the light blue indicates the portion above the ecliptic plane, and the dark blue the portion below the ecliptic plane.

Orbit Viewer applet originally written and kindly provided by Osamu Ajiki (AstroArts), and further modified by Ron Baalke (JPL).


Orbital Elements at Epoch 2456400.5 (2013-Apr-18.0) TDB
Reference: JPL 7 (heliocentric ecliptic J2000)
 Element Value Uncertainty (1-sigma)   Units 
e .7182756412613558 3.0851e-07  
a 2.261269691313133 8.4014e-08 AU
q .6370547537203244 6.7424e-07 AU
i 8.12421497856754 8.4338e-05 deg
node 156.8490098764453 0.00019185 deg
peri 113.3453816382955 0.00021774 deg
M 181.419106143794 5.7873e-05 deg
tp 2457016.611707099321
(2014-Dec-25.11170710)
0.00023384 JED
period 1242.01536774897
3.40
6.9218e-05
1.895e-07
d
yr
n .2898514860186185 1.6153e-08 deg/d
Q 3.885484628905942 1.4436e-07 AU
  Orbit Determination Parameters
   # obs. used (total)      52  
   data-arc span      3876 days (10.61 yr)  
   first obs. used      2001-02-20  
   last obs. used      2011-10-02  
   planetary ephem.      DE405  
   SB-pert. ephem.      SB405-CPV-2  
   condition code      0  
   fit RMS      .41808  
   data source      ORB  
   producer      Otto Matic  
   solution date      2011-Oct-02 16:50:09  

Additional Information
 Earth MOID = .0387978 AU 
 T_jup = 3.209 
[ show covariance matrix ]

Ephemeris | Orbit Diagram | Orbital Elements | Physical Parameters | Close-Approach Data ]

Physical Parameter Table
Parameter Symbol Value Units Sigma Reference Notes
absolute magnitude H 21.579 mag .49869 7 autocmod 2.5a

[ show close-approach data ]
Ephemeris | Orbit Diagram | Orbital Elements | Physical Parameters | Close-Approach Data ]
ABOUT SSD CREDITS/AWARDS PRIVACY/COPYRIGHT GLOSSARY LINKS
FirstGov 2013-May-25 14:32 UT
(server date/time)  
NASA Home Page
Site Manager:   Donald K. Yeomans
Webmaster  Alan B. Chamberlin